[[{"header":{"parameterUnit":"m.s-1","parameterCategory":1,"la1":30.2991,"la2":30.254,"lo1":-89.0895,"lo2":-89.0444,"dy":0.0017,"dx":0.0017,"nx":28,"ny":28,"refTime":"2025-12-06T09:00:00:Z","depth":0,"parameterNumber":2,"parameterNumberName":"U-component_of_WINDS"},"data":[0,0,0,0,0,0,0,0,0,0,0,0,0,0,0,0,0,0,0,0,0,0,0,0,0,0,0,0,0,0,0,0,0,0,0,0,0,0,0,0,0,0,0,0,0,0,0,0,0,0,0,0,0,0,0,0,0,0,-1.9416,-1.9415,0,-1.9301,-1.93,-1.9299,-1.9164,-1.9162,-1.916,-1.9158,-1.9039,-1.9038,-1.9036,0,0,0,0,0,0,0,0,0,0,0,0,0,-1.9518,-1.9517,-1.9417,-1.9415,-1.9414,-1.9302,-1.93,-1.9298,-1.9165,-1.9162,-1.916,-1.9157,-1.9039,-1.9038,-1.9036,0,0,0,0,0,0,0,0,0,0,0,0,0,-1.9446,-1.9517,-1.9417,-1.9333,-1.9325,-1.9302,-1.93,-1.9298,-1.9165,-1.9162,-1.9159,-1.9156,-1.904,-1.9038,-1.9036,-1.9086,0,0,-1.903,-1.9029,0,0,0,0,0,0,0,0,-1.945,-1.9442,-1.9347,-1.9339,-1.9329,-1.9244,-1.9292,-1.9227,-1.9166,-1.9226,-1.9158,-1.9155,-1.911,-1.9102,-1.9087,-1.908,-1.9075,-1.903,-1.9029,-1.9028,-1.9028,0,0,0,0,0,0,0,-1.9455,-1.9446,-1.9371,-1.9346,-1.9335,-1.9301,-1.9287,-1.9279,-1.9186,-1.922,-1.921,-1.9199,-1.9104,-1.9089,-1.9083,-1.9073,-1.903,-1.9028,-1.9027,-1.9027,-1.9099,-1.9102,0,0,0,0,0,0,-1.9473,-1.9451,-1.9374,-1.9367,-1.9383,-1.9302,-1.9286,-1.9275,-1.9186,-1.9169,-1.9201,-1.9193,-1.9094,-1.9085,-1.9078,-1.9129,-1.9028,-1.9026,-1.9025,-1.9096,-1.9099,-1.9103,0,0,0,0,0,0,-1.9476,-1.9467,-1.9379,-1.9407,-1.9393,-1.9303,-1.9291,-1.9274,-1.9258,-1.9171,-1.9154,-1.9203,-1.9091,-1.9081,-1.9084,-1.9123,-1.9025,-1.9024,-1.9092,-1.9097,-1.9101,-1.9232,0,0,0,0,0,0,-1.9479,-1.9469,-1.9488,-1.9408,-1.9392,-1.9388,-1.9293,-1.9274,-1.9256,-1.9243,-1.9169,-1.9153,-1.9088,-1.9088,-1.9083,-1.9119,-1.9022,-1.9088,-1.9094,-1.91,-1.9224,-1.924,-1.9255,0,0,0,0,0,-1.9483,-1.9529,-1.9489,-1.9481,-1.9413,-1.9391,-1.9381,-1.9306,-1.926,-1.9277,-1.9221,-1.9156,-1.912,-1.9089,-1.9082,-1.9118,-1.9085,-1.9093,-1.9099,-1.9217,-1.9237,-1.9254,0,0,0,0,0,0,-1.9615,-1.9517,-1.9472,-1.9494,-1.9452,-1.9368,-1.9388,-1.933,-1.93,-1.929,-1.9196,-1.9181,-1.9195,-1.9157,-1.9125,-1.916,-1.9093,-1.9099,-1.9185,-1.9203,-1.9219,-1.9227,-1.9021,0,0,0,0,0,-1.9647,-1.9638,-1.9552,-1.958,-1.9561,-1.9479,-1.9466,-1.9411,-1.9364,-1.9345,-1.9289,-1.9245,-1.9223,-1.9211,-1.9187,-1.9218,-1.9198,-1.9239,-1.9254,-1.9267,-1.9273,-1.9285,-1.9301,-1.9125,-1.9125,-1.9125,0,0,-1.9713,-1.9658,-1.9658,-1.9605,-1.9566,-1.9557,-1.9464,-1.946,-1.9452,-1.9344,-1.9344,-1.9301,-1.9246,-1.9263,-1.9267,-1.9231,-1.9317,-1.9276,-1.9287,-1.9286,-1.9294,-1.931,-1.9325,-1.913,-1.9129,-1.9128,0,0,-1.9827,-1.9786,-1.9803,-1.9766,-1.9708,-1.9652,-1.9657,-1.9582,-1.955,-1.9548,-1.9466,-1.9455,-1.9421,-1.9384,-1.9361,-1.9461,-1.94,-1.9456,-1.9536,-1.9549,-1.9563,-1.9575,-1.9609,-1.9623,-1.9462,-1.9462,-1.9463,0,-1.9916,-1.99,-1.9819,-1.9819,-1.9798,-1.97,-1.9716,-1.9684,-1.9621,-1.9608,-1.9569,-1.9522,-1.9478,-1.9485,-1.9509,-1.9494,-1.9495,-1.9464,-1.9568,-1.9578,-1.9588,-1.962,-1.9633,-1.9469,-1.9469,-1.9468,-1.9467,0,-2.0011,-2.0002,-2.0023,-1.9965,-1.9945,-1.9954,-1.9873,-1.9863,-1.981,-1.9759,-1.9758,-1.9701,-1.9663,-1.966,-1.9609,-1.9659,-1.9638,-1.9585,-1.9515,-1.9614,-1.9642,-1.9653,-1.948,-1.9477,-1.9475,-1.9473,0,0,-2.0206,-2.0102,-2.0111,-2.0083,-2.0012,-2.0003,-2.0006,-1.9969,-1.9962,-1.9922,-1.9921,-1.9894,-1.9843,-1.9817,-1.976,-1.9772,-1.9853,-1.9716,-1.9713,-1.9742,-1.9903,-1.9943,-1.9959,-1.9812,-1.9814,-1.9815,-1.9907,0,-2.0307,-2.0307,-2.0234,-2.0254,-2.0244,-2.015,-2.0153,-2.0109,-2.0061,-2.0044,-1.999,-1.9972,-1.9908,-1.9891,-1.9898,-1.9842,-1.9883,-1.9834,-1.9809,-1.9809,-1.9825,-1.9974,-2.0016,-2.0106,-1.9918,-1.992,-1.9921,0,-2.0425,-2.0391,-2.0411,-2.0338,-2.033,-2.0335,-2.0294,-2.0279,-2.0227,-2.0191,-2.0162,-2.0097,-2.0094,-2.0029,-2.0022,-1.999,-1.9975,-1.9946,-1.9948,-1.9942,-1.9871,-1.9971,-2.0133,-2.0146,-1.9938,-1.9936,-1.9935,0,-2.0564,-2.0524,-2.053,-2.0509,-2.0424,-2.0428,-2.0393,-2.0338,-2.032,-2.0284,-2.0271,-2.0236,-2.0216,-2.019,-2.0116,-2.0076,-2.0118,-2.0047,-2.0087,-2.0089,-2.0099,-2.0099,-2.0261,-2.0092,-2.0092,-2.0092,-2.0091,0,-2.0683,-2.0699,-2.0591,-2.0595,-2.0609,-2.0524,-2.054,-2.0495,-2.0447,-2.0439,-2.0356,-2.0351,-2.0255,-2.0238,-2.0181,-2.0183,-2.0175,-2.0145,-2.013,-2.0152,-2.0156,-2.0141,-2.0132,-2.0095,-2.0094,-2.0094,-2.0093,0,-2.0841,-2.0769,-2.0769,-2.0689,-2.0669,-2.0683,-2.0613,-2.0613,-2.0559,-2.0551,-2.0544,-2.046,-2.0436,-2.036,-2.0318,-2.0279,-2.0298,-2.0269,-2.0316,-2.0306,-2.035,-2.0347,-2.0506,-2.0522,-2.0345,-2.0347,-2.0349,0,-2.0922,-2.0931,-2.0852,-2.0841,-2.0809,-2.0793,-2.0774,-2.0691,-2.0674,-2.0615,-2.0621,-2.0591,-2.0562,-2.0528,-2.0463,-2.0429,-2.0398,-2.0456,-2.0392,-2.0414,-2.0397,-2.0397,-2.0397,-2.047,-2.0472,-2.0474,-2.0476,0,-2.1072,-2.1036,-2.1012,-2.0976,-2.0956,-2.0924,-2.0886,-2.0882,-2.0788,-2.0774,-2.0748,-2.0726,-2.0682,-2.0652,-2.0608,-2.057,-2.0507,-2.0496,-2.0503,-2.0526,-2.0553,-2.0538,-2.0353,-2.0493,-2.0491,-2.049,-2.0489,-2.0488,-2.1192,-2.1196,-2.1141,-2.1117,-2.108,-2.1046,-2.1042,-2.0988,-2.0965,-2.0923,-2.0875,-2.0855,-2.0801,-2.0735,-2.0702,-2.0684,-2.065,-2.0661,-2.0663,-2.0667,-2.0677,-2.0556,-2.0676,-2.0675,-2.0675,-2.0674,-2.0674,0,-2.1338,-2.1297,-2.1276,-2.1226,-2.1207,-2.115,-2.1105,-2.1093,-2.1076,-2.1032,-2.1005,-2.0975,-2.0946,-2.0878,-2.0842,-2.0841,-2.0811,-2.0834,-2.0832,-2.0824,-2.0711,-2.0707,-2.0859,-2.0859,-2.0858,-2.0858,-2.0858,-2.0858,-2.1411,-2.1414,-2.1371,-2.1355,-2.1313,-2.1294,-2.1273,-2.1241,-2.1204,-2.1175,-2.1151,-2.1107,-2.1052,-2.1011,-2.0981,-2.0961,-2.0952,-2.0984,-2.0956,-2.085,-2.0833,-2.0816,-2.0812,-2.0983,-2.0983,-2.107,-2.1071,-2.1072]},{"header":{"parameterUnit":"m.s-1","parameterCategory":1,"la1":30.2991,"la2":30.254,"lo1":-89.0895,"lo2":-89.0444,"dy":0.0017,"dx":0.0017,"nx":28,"ny":28,"refTime":"2025-12-06T09:00:00:Z","depth":0,"parameterNumber":3,"parameterNumberName":"V-component_of_WINDS"},"data":[0,0,0,0,0,0,0,0,0,0,0,0,0,0,0,0,0,0,0,0,0,0,0,0,0,0,0,0,0,0,0,0,0,0,0,0,0,0,0,0,0,0,0,0,0,0,0,0,0,0,0,0,0,0,0,0,0,0,-3.0301,-3.0302,0,-3.0337,-3.0337,-3.0338,-3.0302,-3.03,-3.0299,-3.0298,-3.033,-3.0332,-3.0334,0,0,0,0,0,0,0,0,0,0,0,0,0,-3.0199,-3.0201,-3.0301,-3.0302,-3.0302,-3.0337,-3.0337,-3.0338,-3.0302,-3.03,-3.0298,-3.0297,-3.0329,-3.0332,-3.0334,0,0,0,0,0,0,0,0,0,0,0,0,0,-3.0239,-3.0201,-3.0301,-3.0289,-3.0288,-3.0337,-3.0337,-3.0338,-3.0302,-3.03,-3.0298,-3.0296,-3.0328,-3.0331,-3.0335,-3.0396,0,0,-3.0344,-3.0346,0,0,0,0,0,0,0,0,-3.0237,-3.0243,-3.029,-3.029,-3.0289,-3.0313,-3.0313,-3.0357,-3.0303,-3.0297,-3.0297,-3.0295,-3.0326,-3.0329,-3.034,-3.0398,-3.0399,-3.0345,-3.0347,-3.0348,-3.0349,0,0,0,0,0,0,0,-3.0234,-3.0241,-3.0315,-3.0291,-3.029,-3.028,-3.0283,-3.0321,-3.0322,-3.0297,-3.0295,-3.0299,-3.0325,-3.0337,-3.034,-3.04,-3.0345,-3.0348,-3.035,-3.0351,-3.0509,-3.0512,0,0,0,0,0,0,-3.0233,-3.0239,-3.0314,-3.0316,-3.0257,-3.0283,-3.0287,-3.0307,-3.0322,-3.0322,-3.0301,-3.0298,-3.0332,-3.0337,-3.0341,-3.0415,-3.0348,-3.0351,-3.0353,-3.0507,-3.051,-3.0512,0,0,0,0,0,0,-3.0231,-3.0241,-3.0313,-3.0277,-3.0286,-3.0287,-3.031,-3.0309,-3.0321,-3.0325,-3.0325,-3.0314,-3.0331,-3.0337,-3.0383,-3.0415,-3.0353,-3.0356,-3.0505,-3.0508,-3.0511,-3.0561,0,0,0,0,0,0,-3.0229,-3.024,-3.0265,-3.0278,-3.0288,-3.0355,-3.0312,-3.0311,-3.0327,-3.0323,-3.0337,-3.0337,-3.033,-3.0379,-3.0386,-3.0418,-3.0358,-3.0502,-3.0506,-3.051,-3.0557,-3.0566,-3.0574,0,0,0,0,0,-3.0225,-3.0276,-3.0266,-3.0275,-3.0319,-3.0357,-3.0362,-3.0355,-3.033,-3.0354,-3.0356,-3.0336,-3.0411,-3.0384,-3.0392,-3.0426,-3.05,-3.0505,-3.051,-3.0553,-3.0564,-3.0574,0,0,0,0,0,0,-3.0265,-3.0278,-3.0266,-3.0324,-3.034,-3.0351,-3.0381,-3.0367,-3.0389,-3.0384,-3.0372,-3.0375,-3.0424,-3.0429,-3.0399,-3.0486,-3.0451,-3.0458,-3.0481,-3.0491,-3.05,-3.0497,-3.0361,0,0,0,0,0,-3.0281,-3.0312,-3.0321,-3.0371,-3.038,-3.0379,-3.0396,-3.0388,-3.0404,-3.041,-3.0416,-3.043,-3.0457,-3.0474,-3.0499,-3.0557,-3.0559,-3.0585,-3.0593,-3.06,-3.0606,-3.0637,-3.0648,-3.0529,-3.0529,-3.0529,0,0,-3.0313,-3.0324,-3.0344,-3.0379,-3.0391,-3.0423,-3.0385,-3.042,-3.0443,-3.0415,-3.0459,-3.0464,-3.0479,-3.0532,-3.0555,-3.0538,-3.064,-3.0607,-3.0612,-3.0615,-3.0643,-3.0655,-3.0665,-3.0533,-3.0532,-3.0532,0,0,-3.0388,-3.04,-3.0443,-3.0455,-3.0474,-3.0473,-3.0483,-3.0497,-3.0499,-3.0544,-3.0523,-3.055,-3.0596,-3.0608,-3.062,-3.07,-3.0682,-3.0708,-3.0752,-3.0782,-3.0792,-3.08,-3.0828,-3.0838,-3.0714,-3.0714,-3.0714,0,-3.0425,-3.0474,-3.0466,-3.0503,-3.0519,-3.0496,-3.0538,-3.055,-3.0575,-3.0586,-3.0566,-3.0624,-3.0632,-3.0687,-3.0707,-3.0718,-3.0728,-3.0706,-3.0791,-3.0799,-3.0807,-3.0834,-3.0844,-3.0717,-3.0717,-3.0716,-3.0716,0,-3.0519,-3.0552,-3.0584,-3.0611,-3.063,-3.067,-3.0666,-3.0687,-3.0678,-3.0679,-3.0724,-3.0734,-3.076,-3.0772,-3.0763,-3.0826,-3.0814,-3.0793,-3.0758,-3.0822,-3.0846,-3.0856,-3.0721,-3.072,-3.0719,-3.0719,0,0,-3.0619,-3.0641,-3.0653,-3.0665,-3.0684,-3.0709,-3.0747,-3.0774,-3.0791,-3.0809,-3.084,-3.088,-3.086,-3.0874,-3.0866,-3.0893,-3.0955,-3.0868,-3.0868,-3.0883,-3.1024,-3.1039,-3.1051,-3.0943,-3.0945,-3.0947,-3.1022,0,-3.0694,-3.0762,-3.0757,-3.082,-3.0851,-3.083,-3.0862,-3.0877,-3.0879,-3.0904,-3.0905,-3.0934,-3.0906,-3.0914,-3.094,-3.0942,-3.0983,-3.0936,-3.0971,-3.0972,-3.0967,-3.1064,-3.1081,-3.1152,-3.1032,-3.1034,-3.1035,0,-3.0791,-3.0815,-3.0882,-3.0896,-3.0909,-3.0939,-3.0963,-3.0987,-3.1003,-3.1002,-3.1018,-3.1006,-3.1042,-3.1007,-3.1057,-3.1025,-3.1039,-3.1042,-3.1044,-3.1047,-3.1007,-3.1069,-3.1174,-3.1185,-3.105,-3.1049,-3.1048,0,-3.0858,-3.0905,-3.0952,-3.0962,-3.098,-3.1002,-3.101,-3.1023,-3.104,-3.106,-3.1071,-3.1095,-3.1108,-3.1127,-3.112,-3.1095,-3.1172,-3.1135,-3.1171,-3.1171,-3.1188,-3.1187,-3.1296,-3.1198,-3.1197,-3.1197,-3.1197,0,-3.0942,-3.0984,-3.0982,-3.101,-3.1056,-3.1048,-3.1093,-3.1098,-3.1111,-3.1139,-3.1121,-3.1148,-3.1138,-3.1164,-3.1159,-3.1201,-3.1207,-3.1207,-3.1205,-3.1208,-3.1208,-3.1217,-3.1211,-3.12,-3.1199,-3.1199,-3.1198,0,-3.1024,-3.1024,-3.1073,-3.1087,-3.1091,-3.1124,-3.1135,-3.1161,-3.1162,-3.1197,-3.1205,-3.1206,-3.1235,-3.1231,-3.1263,-3.126,-3.1312,-3.1304,-3.1307,-3.1305,-3.1341,-3.1338,-3.146,-3.1475,-3.1367,-3.1368,-3.1368,0,-3.1078,-3.1109,-3.1127,-3.1145,-3.1155,-3.1185,-3.1202,-3.1195,-3.1214,-3.1234,-3.1257,-3.1285,-3.1307,-3.1355,-3.1357,-3.1381,-3.1374,-3.1415,-3.1377,-3.1379,-3.1374,-3.1372,-3.1375,-3.1422,-3.1423,-3.1424,-3.1425,0,-3.1173,-3.1172,-3.1198,-3.1225,-3.1246,-3.1266,-3.1285,-3.13,-3.1295,-3.1316,-3.1347,-3.1364,-3.1397,-3.1425,-3.1448,-3.1454,-3.1439,-3.1437,-3.1447,-3.145,-3.145,-3.145,-3.1327,-3.1434,-3.1433,-3.1433,-3.1432,-3.1432,-3.1242,-3.1269,-3.1286,-3.1316,-3.1329,-3.1347,-3.1372,-3.1377,-3.1402,-3.143,-3.1424,-3.1458,-3.1472,-3.1502,-3.1511,-3.1536,-3.1521,-3.1535,-3.1538,-3.1542,-3.1546,-3.1447,-3.1541,-3.154,-3.154,-3.154,-3.154,0,-3.1336,-3.1346,-3.1373,-3.14,-3.1424,-3.1409,-3.1428,-3.1448,-3.1479,-3.1494,-3.1516,-3.1551,-3.1578,-3.1583,-3.1608,-3.1627,-3.1621,-3.1634,-3.1632,-3.1634,-3.1558,-3.1548,-3.1639,-3.1639,-3.1639,-3.1639,-3.1639,-3.1639,-3.1387,-3.1433,-3.1434,-3.1485,-3.1494,-3.1529,-3.1541,-3.1557,-3.1569,-3.1609,-3.1632,-3.1636,-3.1646,-3.1672,-3.1696,-3.1696,-3.1706,-3.1722,-3.172,-3.1649,-3.1639,-3.163,-3.162,-3.1724,-3.1725,-3.1793,-3.1794,-3.1794]}]]